Wind_Speed
8 8 8 6 4 6 7 7 7 6 5 3 2 1 0 2 2 3 3 4 4 4 5 5 6 6 6 6 6 6 6 6 6 5 5 5 4 4 3 2 2 2 1 1 2 4 5 6 7
6 5 6 5 5 7 7 7 7 6 5 4 3 3 2 1 2 3 4 4 4 4 4 4 4 4 5 5 5 5 5 5 5 4 4 4 4 3 3 2 2 2 1 1 1 1 2 3 4
4 4 4 3 6 6 7 7 7 6 5 4 4 4 2 2 2 3 5 5 5 6 5 5 5 4 4 4 4 3 3 3 3 3 3 3 3 2 2 2 2 1 1 1 1 0 1 2 3
3 4 4 4 5 5 6 7 7 7 6 6 5 4 4 3 3 4 5 6 7 7 7 7 7 6 6 5 5 4 4 3 3 2 2 2 2 1 1 1 1 1 1 1 1 1 0 1 2
2 3 3 4 4 5 6 7 8 8 7 7 6 6 5 5 5 5 7 7 8 8 9 9 9 9 8 8 7 7 6 5 5 4 3 3 3 2 2 1 1 1 1 1 0 0 1 1 1
3 3 3 4 5 6 6 7 7 9 10 9 8 7 7 6 6 7 8 8 9 10 10 11 11 11 11 11 10 10 9 8 8 7 6 5 5 5 4 4 3 3 3 2 2 2 2 2 2
4 3 5 7 7 8 9 9 9 9 10 10 10 9 9 9 9 9 10 11 11 12 12 13 13 13 13 13 13 12 12 11 10 10 9 9 8 7 7 7 6 6 5 4 4 3 3 3 3
6 6 8 9 9 9 11 11 12 11 12 12 12 11 11 11 11 12 13 13 14 14 14 14 15 16 16 16 16 15 15 14 13 13 12 12 11 10 10 10 9 8 8 7 6 5 5 4 4
9 7 8 11 10 11 13 14 14 14 14 14 14 14 14 14 14 15 15 16 16 17 17 17 17 17 18 18 18 18 18 18 17 17 16 15 14 13 13 12 12 11 10 9 9 8 7 6 6
10 9 10 13 14 14 15 16 16 16 16 17 17 16 17 17 18 18 18 19 19 19 20 20 21 21 20 20 20 20 21 21 21 21 20 19 18 16 16 15 14 14 13 12 11 10 9 8 8
12 11 12 15 16 16 17 18 18 19 19 20 20 20 20 21 21 22 23 23 22 23 23 23 24 24 24 24 23 22 23 23 23 23 23 22 21 20 19 19 18 17 16 15 14 13 11 10 10
14 14 15 17 17 18 18 19 20 21 22 23 23 24 24 24 25 26 26 26 26 26 27 27 27 27 27 27 27 25 26 25 25 25 24 24 24 23 22 22 21 19 18 18 17 16 14 13 12
15 16 18 19 19 20 21 22 23 24 26 26 26 27 28 29 29 30 30 30 30 30 30 31 31 31 31 30 30 29 29 28 27 27 27 27 26 25 25 24 23 22 21 20 20 19 17 16 14
17 19 21 22 23 24 25 25 26 27 28 29 29 30 31 32 33 33 34 35 35 35 35 35 35 35 34 34 33 33 33 32 31 31 31 30 29 28 27 27 26 24 23 23 22 21 20 19 17
20 22 24 25 25 26 28 27 27 29 30 31 31 32 33 34 35 36 37 37 38 38 39 39 40 39 38 38 37 36 36 36 35 34 33 32 32 31 29 28 28 27 25 24 23 23 22 21 20
22 24 26 26 26 27 30 31 29 31 32 33 33 34 35 35 36 37 38 39 40 41 41 41 42 42 42 42 41 39 39 38 38 38 36 35 34 33 32 30 28 28 28 26 25 25 24 23 22
22 20 25 30 29 31 33 34 33 33 34 35 35 36 36 37 38 39 39 40 41 42 42 42 42 43 43 43 43 43 42 42 40 40 38 38 37 36 34 32 30 29 29 29 27 27 26 25 23
21 22 26 33 33 35 35 35 34 33 33 34 35 35 37 37 38 38 38 39 40 41 41 41 42 42 43 43 44 44 44 44 44 43 42 41 40 37 35 34 33 31 31 30 30 28 28 28 26
24 26 28 34 34 34 34 33 31 30 31 32 33 34 35 35 36 36 36 36 37 38 39 40 40 41 41 42 43 43 44 44 44 44 43 43 41 40 37 36 36 34 33 32 31 30 29 29 28
25 26 27 32 30 29 30 30 29 27 28 29 30 31 31 32 33 33 34 34 34 35 36 37 37 38 39 40 40 41 42 42 42 42 42 42 41 40 39 38 37 36 34 33 32 30 30 30 29
24 26 25 27 28 26 27 28 28 26 26 26 28 29 29 29 29 29 30 30 31 31 31 32 33 34 35 36 37 38 40 40 40 40 40 40 40 40 39 38 38 36 34 34 34 32 30 31 30
23 24 23 23 24 25 25 26 27 26 25 26 27 27 27 27 27 26 26 26 26 27 27 28 29 30 31 32 33 34 35 37 38 38 38 39 39 38 39 38 37 35 34 34 34 34 33 32 31
21 22 21 20 20 20 20 21 26 24 24 25 26 26 25 25 25 24 23 23 23 23 23 24 25 26 27 28 30 31 33 34 35 36 37 36 36 37 37 36 36 35 35 34 34 34 34 32 32
19 19 18 17 17 17 17 20 26 24 24 24 24 23 23 23 22 21 21 20 20 20 20 21 21 21 23 24 25 26 28 29 31 32 33 33 34 34 35 35 35 34 34 34 35 33 33 33 32
16 16 16 15 16 18 19 22 22 22 22 21 21 21 21 21 20 20 20 19 18 19 19 19 18 18 18 18 19 21 22 24 25 27 28 29 30 31 32 32 33 34 33 33 33 32 32 32 32
15 14 14 11 8 15 18 19 19 19 19 19 19 19 20 20 20 19 18 18 18 18 17 17 16 16 16 15 15 15 15 16 17 20 22 24 25 27 29 30 31 31 31 31 31 31 30 30 29
14 13 13 11 10 10 15 18 16 16 17 17 18 19 19 19 19 17 17 18 18 17 16 15 14 14 14 14 13 12 11 9 9 11 14 17 20 22 24 26 28 28 28 29 29 29 29 28 28
12 13 12 11 11 8 11 16 17 16 16 17 18 18 19 19 18 18 18 19 19 19 18 17 16 15 15 14 13 11 9 7 6 7 8 11 14 16 19 21 24 25 25 26 27 28 27 27 27
13 13 12 12 12 11 11 13 14 15 16 16 17 17 18 19 19 19 20 20 20 19 19 20 19 17 17 15 14 13 10 9 8 7 6 6 8 12 14 15 18 21 22 24 25 27 28 27 26
13 12 13 13 12 12 12 13 13 14 15 15 16 17 17 18 19 19 20 20 20 20 20 20 20 19 18 17 16 14 13 11 10 9 7 5 4 6 8 10 13 16 19 21 23 23 25 25 25
Wind_Direction
64 65 69 70 65 61 54 49 45 38 36 34 18 350 136 188 189 218 216 192 178 163 149 141 135 130 127 123 119 118 117 117 119 120 119 118 119 120 124 130 134 143 160 189 215 227 232 237 243
56 59 61 45 55 54 48 42 36 27 22 15 360 349 352 275 244 245 235 220 212 202 189 178 167 157 150 144 138 132 127 124 121 120 123 122 120 119 117 116 114 112 115 129 176 227 232 232 238
50 46 50 15 41 39 35 27 22 12 8 0 350 350 343 309 279 258 248 241 236 233 224 217 211 203 193 184 175 167 158 148 138 132 130 128 124 122 120 115 104 91 92 100 111 143 220 232 243
24 18 19 13 22 22 15 4 3 355 346 342 343 339 327 316 288 268 258 252 246 248 246 240 236 232 227 223 220 215 209 203 193 182 173 165 160 151 141 134 111 81 67 70 89 92 196 238 250
331 346 350 347 350 355 351 347 347 337 330 328 333 331 325 318 301 284 270 261 253 252 254 251 248 244 241 240 240 239 237 234 235 237 237 235 233 235 243 255 262 273 307 323 313 305 305 281 266
292 330 328 320 329 327 326 325 330 324 317 318 322 322 318 310 302 292 281 271 262 256 256 256 254 250 247 246 247 248 247 244 245 247 250 253 255 256 257 260 264 268 274 283 289 282 290 293 280
276 268 282 292 301 304 303 305 305 302 305 307 310 312 306 302 297 292 286 278 271 265 261 261 259 256 253 251 250 250 251 251 250 251 252 254 258 261 263 263 264 265 268 272 277 280 279 280 278
272 274 279 279 281 287 292 297 295 297 295 295 298 301 299 296 293 290 287 284 277 272 268 265 264 262 258 255 253 252 252 252 253 254 255 255 258 259 261 263 264 264 265 267 269 272 275 277 275
277 275 273 278 282 285 291 292 291 290 288 289 291 293 293 293 290 286 283 280 277 273 270 269 267 265 264 261 258 254 253 253 253 254 255 255 256 258 258 259 261 263 264 265 265 266 267 268 269
278 278 267 277 287 287 289 291 291 290 288 288 289 288 288 287 288 286 284 282 279 275 272 272 269 267 266 264 261 259 256 254 254 254 254 255 255 257 258 258 259 259 261 262 263 262 261 260 261
283 283 281 283 286 287 290 291 291 291 288 288 288 286 284 284 284 283 282 281 280 277 275 273 272 270 269 266 263 263 261 258 257 257 256 257 257 255 254 256 257 258 259 259 260 260 259 257 257
286 286 286 287 289 291 293 293 293 292 290 289 288 287 284 283 282 281 281 280 280 278 275 274 274 273 273 269 265 264 262 259 259 259 258 258 258 258 255 253 255 258 259 258 258 259 258 257 255
287 289 290 291 293 294 295 295 295 293 291 290 289 287 285 284 281 280 279 278 277 276 276 275 274 274 271 270 269 267 268 265 263 261 259 259 259 260 258 257 256 259 262 259 256 256 256 257 256
289 290 292 294 295 296 296 297 296 294 293 292 290 288 285 283 280 279 278 277 276 275 274 274 275 276 275 272 271 270 267 267 268 265 261 261 261 261 261 258 258 259 262 260 257 255 255 255 255
290 293 294 296 296 297 298 298 298 295 294 293 291 289 287 284 282 280 279 278 276 275 274 274 273 274 273 273 272 271 271 269 268 267 265 264 263 262 262 261 260 260 260 259 257 256 255 254 252
293 299 300 299 299 301 302 302 300 296 295 294 292 291 289 286 285 282 280 278 277 275 275 274 273 273 272 271 270 270 270 271 271 269 267 267 265 263 263 262 262 260 259 258 256 257 258 254 250
303 305 299 298 300 304 303 302 301 298 297 295 294 292 290 288 286 284 282 281 279 277 277 275 274 274 273 271 271 271 271 271 271 272 268 268 268 268 263 262 262 263 260 256 257 257 253 253 249
294 294 292 294 301 303 302 301 301 301 299 298 296 295 293 292 290 288 285 283 282 280 279 278 276 275 273 272 272 272 271 271 271 272 270 270 269 269 267 264 264 261 260 257 258 259 253 250 250
292 293 291 292 300 302 303 303 304 303 302 301 300 298 297 296 294 292 289 287 285 283 281 279 278 277 275 273 272 271 271 271 271 270 269 270 271 269 268 268 266 263 262 259 260 259 255 249 248
294 294 294 296 303 305 305 307 308 308 306 305 304 303 302 300 297 295 293 291 288 286 284 281 279 278 276 274 272 270 270 270 269 268 268 267 268 268 267 266 265 264 263 261 262 259 254 250 247
299 299 303 303 307 307 307 308 309 312 311 310 309 308 307 305 303 300 297 296 294 291 288 285 283 280 277 274 272 270 269 268 268 267 266 266 265 265 265 264 263 262 261 260 260 256 253 249 248
302 307 308 308 309 310 314 316 316 322 321 319 316 315 313 311 310 308 305 303 300 296 293 289 286 283 279 276 273 271 269 268 267 265 264 263 262 261 260 261 260 258 257 257 257 254 254 251 250
307 310 311 312 313 314 318 319 317 327 326 324 322 322 320 319 318 317 314 313 311 307 301 297 293 288 283 278 275 273 271 269 267 265 262 260 259 258 257 255 254 253 254 254 253 251 253 251 250
313 315 316 315 321 327 324 320 320 330 327 326 327 328 326 327 326 324 323 323 323 321 316 311 307 301 294 287 281 277 274 271 267 263 258 257 256 255 253 251 250 251 250 250 250 250 251 250 250
321 323 327 333 332 321 318 319 326 327 328 331 332 333 334 334 332 331 331 331 332 330 327 324 321 317 310 302 294 287 281 274 266 262 258 256 253 251 249 249 248 247 246 247 246 247 249 249 251
330 331 333 332 312 308 314 321 333 332 334 336 338 340 342 343 344 343 343 343 343 340 338 335 332 329 325 322 316 308 298 282 270 263 259 255 252 248 246 245 245 244 243 243 244 244 248 247 248
339 340 340 336 334 324 316 329 341 340 343 347 350 351 353 355 357 358 359 360 359 357 355 353 351 351 350 346 337 332 327 309 287 274 267 259 252 245 243 242 241 240 240 240 241 243 245 246 246
352 352 351 349 348 340 324 332 348 354 357 358 1 4 7 9 12 15 16 14 14 14 15 15 12 9 7 4 3 358 353 347 328 304 288 269 251 245 244 240 236 237 237 236 238 241 240 241 243
6 7 6 2 2 356 345 352 356 1 3 6 11 14 18 23 26 26 24 23 23 24 24 23 22 21 21 19 18 18 11 3 357 349 321 289 261 251 250 246 242 240 239 238 240 240 239 240 239
14 13 11 10 9 8 5 11 8 10 13 15 18 20 22 24 24 24 25 26 26 27 27 25 24 24 24 23 23 22 20 15 15 14 3 344 312 280 263 254 247 245 243 243 243 242 241 242 241
Height
5922 5922 5921 5921 5921 5920 5919 5919 5918 5917 5917 5917 5916 5916 5916 5916 5917 5919 5917 5916 5916 5916 5915 5915 5915 5915 5915 5915 5915 5914 5914 5914 5913 5913 5913 5912 5912 5912 5911 5911 5910 5910 5910 5910 5910 5910 5910 5910 5910
5924 5924 5923 5923 5921 5920 5921 5920 5919 5919 5919 5918 5917 5917 5917 5916 5917 5916 5916 5916 5917 5916 5916 5916 5916 5916 5916 5916 5916 5915 5915 5915 5914 5914 5914 5913 5913 5913 5912 5912 5911 5910 5910 5910 5910 5909 5909 5909 5909
5925 5925 5925 5924 5922 5922 5922 5921 5920 5920 5919 5919 5918 5918 5917 5917 5917 5916 5916 5916 5917 5917 5917 5916 5916 5916 5916 5916 5916 5916 5915 5915 5915 5915 5914 5914 5914 5913 5913 5912 5912 5911 5910 5910 5910 5909 5909 5909 5909
5927 5927 5926 5925 5923 5923 5922 5922 5921 5921 5920 5920 5919 5919 5917 5917 5916 5916 5916 5916 5916 5916 5916 5916 5916 5916 5916 5916 5916 5916 5915 5915 5915 5915 5915 5914 5914 5913 5913 5912 5912 5911 5911 5910 5910 5909 5909 5909 5909
5927 5928 5926 5924 5924 5923 5923 5922 5922 5921 5921 5920 5920 5919 5918 5917 5917 5916 5915 5916 5916 5916 5915 5915 5915 5915 5915 5915 5915 5915 5915 5915 5914 5914 5914 5914 5914 5913 5913 5912 5912 5911 5911 5910 5910 5909 5909 5909 5908
5928 5928 5926 5925 5924 5924 5923 5923 5922 5922 5920 5919 5919 5919 5918 5917 5916 5916 5915 5915 5914 5914 5914 5913 5913 5913 5913 5913 5913 5913 5913 5913 5913 5913 5913 5913 5913 5913 5912 5912 5911 5911 5911 5910 5910 5909 5909 5908 5908
5929 5928 5926 5926 5925 5924 5924 5923 5922 5921 5920 5919 5919 5918 5917 5916 5915 5915 5914 5913 5913 5913 5912 5911 5911 5911 5911 5911 5911 5911 5911 5911 5911 5911 5911 5911 5912 5911 5911 5911 5910 5910 5910 5909 5909 5909 5908 5908 5908
5928 5928 5926 5924 5924 5924 5923 5922 5921 5921 5920 5919 5918 5917 5916 5915 5914 5913 5912 5912 5911 5910 5910 5910 5909 5909 5909 5909 5909 5909 5909 5909 5909 5909 5909 5909 5910 5910 5910 5909 5909 5909 5909 5908 5908 5908 5908 5907 5907
5927 5928 5926 5923 5922 5922 5922 5921 5921 5920 5919 5917 5916 5915 5914 5913 5912 5911 5910 5909 5908 5907 5907 5906 5906 5906 5906 5905 5905 5905 5906 5906 5906 5906 5907 5907 5907 5907 5907 5907 5907 5907 5907 5907 5907 5907 5907 5906 5906
5925 5926 5924 5922 5922 5921 5920 5919 5919 5918 5917 5915 5914 5913 5912 5910 5909 5908 5907 5906 5905 5904 5904 5903 5902 5902 5902 5902 5901 5901 5901 5901 5902 5902 5903 5903 5904 5904 5905 5904 5905 5905 5905 5905 5905 5905 5905 5905 5905
5923 5923 5922 5921 5920 5919 5919 5917 5916 5915 5914 5913 5911 5910 5908 5907 5905 5904 5903 5902 5901 5900 5900 5898 5898 5897 5897 5897 5897 5897 5897 5897 5897 5898 5899 5899 5899 5900 5901 5901 5901 5902 5902 5902 5902 5903 5903 5903 5903
5921 5921 5920 5919 5918 5917 5916 5915 5913 5912 5910 5909 5907 5905 5904 5902 5901 5899 5898 5897 5896 5895 5894 5893 5893 5892 5891 5891 5891 5891 5891 5891 5892 5893 5894 5894 5895 5896 5896 5897 5898 5898 5899 5899 5900 5900 5900 5901 5901
5919 5918 5917 5916 5915 5913 5912 5911 5910 5908 5906 5904 5902 5900 5899 5897 5895 5893 5892 5891 5890 5889 5888 5887 5886 5886 5885 5885 5885 5885 5884 5884 5885 5887 5888 5889 5890 5890 5892 5893 5894 5894 5895 5895 5896 5897 5897 5898 5898
5916 5915 5914 5913 5911 5909 5908 5907 5905 5902 5900 5898 5896 5894 5892 5890 5888 5887 5885 5884 5883 5882 5881 5880 5879 5878 5878 5878 5879 5879 5879 5879 5880 5879 5880 5882 5883 5884 5885 5887 5888 5889 5890 5891 5892 5893 5893 5894 5895
5913 5912 5910 5909 5907 5905 5903 5903 5900 5897 5895 5892 5890 5888 5886 5883 5881 5879 5878 5876 5874 5873 5872 5871 5870 5870 5870 5870 5870 5871 5871 5872 5872 5873 5872 5874 5876 5877 5879 5880 5882 5883 5884 5885 5887 5888 5889 5890 5891
5910 5908 5906 5904 5902 5900 5899 5896 5895 5891 5888 5886 5883 5881 5878 5876 5873 5871 5869 5867 5865 5864 5863 5862 5861 5860 5860 5861 5861 5862 5862 5863 5864 5865 5866 5866 5867 5869 5872 5873 5875 5877 5878 5880 5881 5882 5884 5885 5886
5907 5906 5902 5898 5897 5895 5893 5890 5888 5885 5882 5879 5876 5873 5870 5867 5865 5863 5860 5858 5856 5854 5853 5852 5851 5851 5850 5851 5851 5852 5853 5854 5855 5857 5858 5859 5859 5861 5863 5866 5867 5869 5872 5873 5875 5877 5878 5879 5881
5905 5903 5900 5893 5892 5890 5888 5884 5882 5879 5875 5871 5868 5865 5862 5859 5856 5853 5851 5849 5847 5845 5843 5842 5841 5841 5840 5840 5841 5842 5842 5844 5845 5847 5848 5850 5851 5852 5854 5857 5860 5862 5864 5866 5869 5870 5872 5874 5875
5902 5900 5897 5891 5889 5886 5882 5878 5875 5872 5869 5865 5861 5858 5854 5851 5847 5844 5842 5839 5837 5835 5833 5832 5831 5830 5830 5830 5830 5831 5832 5833 5834 5836 5838 5840 5842 5844 5846 5849 5852 5854 5857 5859 5861 5864 5865 5867 5870
5898 5896 5893 5886 5885 5881 5876 5872 5869 5867 5863 5860 5855 5851 5848 5844 5840 5837 5834 5831 5828 5826 5824 5822 5821 5820 5819 5819 5819 5820 5821 5822 5823 5825 5827 5830 5832 5834 5837 5840 5843 5846 5849 5851 5854 5856 5858 5861 5863
5893 5890 5888 5883 5879 5876 5873 5868 5864 5862 5858 5854 5850 5846 5842 5837 5834 5830 5827 5823 5820 5818 5815 5813 5812 5810 5809 5809 5808 5809 5810 5811 5813 5815 5817 5819 5822 5825 5828 5831 5834 5837 5840 5843 5846 5848 5851 5853 5856
5889 5886 5883 5879 5876 5871 5869 5864 5859 5856 5853 5849 5845 5840 5836 5832 5828 5824 5820 5817 5814 5811 5808 5805 5803 5802 5800 5799 5799 5799 5800 5801 5802 5804 5806 5808 5811 5814 5817 5821 5824 5828 5831 5835 5838 5840 5843 5846 5848
5885 5882 5879 5875 5872 5869 5865 5862 5857 5854 5849 5845 5841 5836 5832 5828 5823 5819 5815 5811 5808 5805 5801 5799 5796 5794 5792 5791 5790 5790 5790 5791 5792 5793 5795 5798 5800 5803 5807 5811 5814 5818 5822 5825 5829 5832 5835 5838 5840
5881 5878 5875 5872 5869 5866 5864 5861 5855 5852 5847 5843 5838 5834 5829 5824 5820 5815 5811 5807 5804 5800 5797 5794 5791 5788 5785 5783 5782 5781 5781 5781 5782 5783 5784 5787 5790 5794 5797 5800 5804 5808 5812 5815 5819 5823 5827 5830 5833
5879 5876 5873 5869 5866 5865 5862 5859 5856 5850 5846 5841 5837 5832 5827 5822 5818 5813 5809 5805 5801 5797 5794 5790 5787 5784 5781 5778 5776 5774 5773 5773 5773 5774 5775 5778 5781 5784 5788 5791 5795 5799 5803 5806 5810 5814 5818 5821 5824
5876 5874 5871 5869 5867 5863 5860 5857 5854 5849 5845 5840 5835 5831 5826 5821 5816 5812 5807 5803 5800 5796 5792 5788 5785 5781 5778 5775 5772 5770 5768 5767 5767 5768 5769 5771 5773 5776 5779 5782 5786 5790 5794 5798 5802 5806 5809 5813 5816
5875 5872 5869 5867 5865 5863 5859 5855 5853 5848 5844 5839 5835 5830 5825 5821 5816 5812 5807 5803 5799 5795 5791 5787 5783 5780 5777 5773 5770 5768 5765 5764 5764 5764 5765 5765 5767 5769 5772 5775 5779 5782 5786 5790 5794 5797 5801 5805 5808
5874 5871 5868 5866 5863 5861 5859 5854 5851 5847 5843 5839 5835 5830 5826 5821 5817 5813 5808 5804 5800 5796 5792 5787 5784 5780 5777 5774 5770 5767 5765 5764 5763 5762 5762 5762 5763 5765 5766 5769 5772 5776 5779 5782 5786 5790 5793 5797 5800
5874 5871 5868 5865 5862 5860 5857 5856 5851 5847 5844 5840 5836 5832 5828 5823 5819 5815 5811 5806 5802 5798 5794 5790 5786 5782 5779 5775 5772 5769 5766 5765 5763 5762 5761 5760 5760 5761 5763 5764 5767 5770 5773 5776 5779 5782 5786 5790 5793
5874 5871 5868 5866 5863 5860 5857 5858 5851 5848 5845 5841 5838 5834 5830 5826 5822 5818 5813 5809 5805 5801 5796 5792 5788 5784 5781 5777 5774 5771 5768 5766 5764 5763 5761 5760 5760 5759 5760 5762 5764 5766 5768 5771 5774 5776 5780 5783 5786